PJS458 LFSB-LIRP

Flight info

Callsign PJS458
Flight time 1h 0m
Altitude 29000
Route ELBEG Y715 AMRUP N491 TRA N850 ODINA DCT SRN DCT ROBAS DCT MISPO DCT OSBUL DCT EKPAL DCT MIVKI
Aircraft E50P/L-SBDFGRWY/LB2

Departure

Time 2026-04-21 18:36
Airport EuroAirport Basel–Mulhouse–Freiburg (LFSB)

Arrival

Time 2026-04-21 19:37
Airport Pisa International Airport (LIRP)
Time Latitude Longitude Altitude Speed Heading
2026-04-21 18:19 47.60289 7.52530 885 ft 0 kts 320°
2026-04-21 18:28 47.60293 7.52524 885 ft 4 kts 309°
2026-04-21 18:28 47.60274 7.52495 885 ft 6 kts 181°
2026-04-21 18:28 47.60223 7.52476 885 ft 9 kts 200°
2026-04-21 18:28 47.60159 7.52499 885 ft 11 kts 155°
2026-04-21 18:29 47.60077 7.52556 885 ft 15 kts 154°
2026-04-21 18:29 47.59979 7.52624 885 ft 16 kts 154°
2026-04-21 18:29 47.59868 7.52702 885 ft 19 kts 154°
2026-04-21 18:29 47.59745 7.52788 885 ft 17 kts 155°
2026-04-21 18:30 47.59694 7.52819 885 ft 6 kts 147°
2026-04-21 18:30 47.59655 7.52844 885 ft 6 kts 171°
2026-04-21 18:30 47.59614 7.52829 885 ft 7 kts 213°
2026-04-21 18:30 47.59582 7.52803 885 ft 4 kts 169°
2026-04-21 18:31 47.59544 7.52829 885 ft 8 kts 156°
2026-04-21 18:31 47.59515 7.52846 885 ft 0 kts 161°
2026-04-21 18:31 47.59514 7.52846 885 ft 1 kts 160°
2026-04-21 18:32 47.59457 7.52890 885 ft 13 kts 154°
2026-04-21 18:32 47.59369 7.52952 885 ft 16 kts 154°
2026-04-21 18:32 47.59262 7.53026 885 ft 16 kts 155°
2026-04-21 18:32 47.59190 7.53092 885 ft 10 kts 125°
2026-04-21 18:33 47.59184 7.53179 885 ft 8 kts 84°
2026-04-21 18:33 47.59162 7.53239 885 ft 8 kts 137°
2026-04-21 18:33 47.59151 7.53327 885 ft 11 kts 78°
2026-04-21 18:33 47.59169 7.53451 885 ft 14 kts 76°
2026-04-21 18:34 47.59192 7.53594 885 ft 15 kts 76°
2026-04-21 18:34 47.59206 7.53683 885 ft 6 kts 89°
2026-04-21 18:34 47.59198 7.53716 885 ft 1 kts 137°
2026-04-21 18:34 47.59195 7.53720 885 ft 0 kts 142°
2026-04-21 18:35 47.59182 7.53728 885 ft 6 kts 166°
2026-04-21 18:35 47.59128 7.53729 887 ft 8 kts 221°
2026-04-21 18:35 47.59107 7.53662 887 ft 8 kts 249°
2026-04-21 18:36 47.59058 7.53377 886 ft 63 kts 257°
2026-04-21 18:36 47.58899 7.52361 888 ft 135 kts 257°
2026-04-21 18:36 47.58657 7.50879 1426 ft 147 kts 259°
2026-04-21 18:36 47.58374 7.49372 2305 ft 165 kts 255°
2026-04-21 18:37 47.58043 7.47572 2945 ft 195 kts 254°
2026-04-21 18:37 47.57599 7.45578 3731 ft 209 kts 248°
2026-04-21 18:37 47.57050 7.43460 4382 ft 232 kts 249°
2026-04-21 18:37 47.56482 7.41107 5007 ft 254 kts 249°
2026-04-21 18:38 47.55858 7.38558 5625 ft 271 kts 249°
2026-04-21 18:38 47.55202 7.35871 6253 ft 283 kts 249°
2026-04-21 18:38 47.54523 7.33099 6865 ft 290 kts 249°
2026-04-21 18:38 47.53830 7.30272 7491 ft 294 kts 249°
2026-04-21 18:39 47.53132 7.27458 8107 ft 296 kts 249°
2026-04-21 18:39 47.52411 7.24601 8728 ft 296 kts 249°
2026-04-21 18:39 47.51676 7.21759 9368 ft 295 kts 249°
2026-04-21 18:39 47.50977 7.18928 10008 ft 291 kts 257°
2026-04-21 18:40 47.50960 7.15988 10572 ft 287 kts 283°
2026-04-21 18:40 47.51833 7.13359 11063 ft 290 kts 307°
2026-04-21 18:40 47.52816 7.11972 11078 ft 303 kts 323°
2026-04-21 18:40 47.55519 7.10591 11081 ft 317 kts 355°
2026-04-21 18:41 47.57681 7.11086 11088 ft 315 kts 18°
2026-04-21 18:41 47.59426 7.12717 11087 ft 312 kts 41°
2026-04-21 18:41 47.60830 7.15114 11104 ft 314 kts 50°
2026-04-21 18:41 47.62139 7.17718 11110 ft 316 kts 52°
2026-04-21 18:42 47.63416 7.20377 11117 ft 317 kts 56°
2026-04-21 18:42 47.64117 7.23398 11663 ft 312 kts 82°
2026-04-21 18:42 47.63889 7.26585 12232 ft 315 kts 107°
2026-04-21 18:42 47.62944 7.29509 12794 ft 315 kts 119°
2026-04-21 18:43 47.61808 7.32302 13336 ft 318 kts 121°
2026-04-21 18:43 47.60726 7.34833 13827 ft 320 kts 122°
2026-04-21 18:43 47.59475 7.37700 14337 ft 322 kts 122°
2026-04-21 18:43 47.58248 7.40491 14823 ft 324 kts 122°
2026-04-21 18:44 47.57031 7.43257 15308 ft 326 kts 122°
2026-04-21 18:44 47.55788 7.46079 15813 ft 328 kts 122°
2026-04-21 18:44 47.54535 7.48918 16310 ft 331 kts 122°
2026-04-21 18:44 47.53273 7.51777 16840 ft 333 kts 122°
2026-04-21 18:45 47.52001 7.54652 17369 ft 335 kts 122°
2026-04-21 18:45 47.50720 7.57539 17907 ft 337 kts 122°
2026-04-21 18:45 47.49434 7.60443 18444 ft 338 kts 122°
2026-04-21 18:45 47.48143 7.63359 18922 ft 340 kts 122°
2026-04-21 18:46 47.46854 7.66269 19396 ft 342 kts 122°
2026-04-21 18:46 47.45568 7.69179 19877 ft 344 kts 122°
2026-04-21 18:46 47.44255 7.72143 20380 ft 346 kts 122°
2026-04-21 18:46 47.42933 7.75134 20886 ft 349 kts 122°
2026-04-21 18:47 47.41604 7.78146 21403 ft 352 kts 122°
2026-04-21 18:47 47.40263 7.81187 21925 ft 355 kts 122°
2026-04-21 18:47 47.38912 7.84252 22460 ft 358 kts 122°
2026-04-21 18:47 47.37549 7.87346 22997 ft 361 kts 122°
2026-04-21 18:48 47.36178 7.90469 23551 ft 364 kts 122°
2026-04-21 18:48 47.34799 7.93614 24024 ft 367 kts 122°
2026-04-21 18:48 47.33381 7.96844 24091 ft 385 kts 122°
2026-04-21 18:48 47.32116 7.99724 24094 ft 398 kts 122°
2026-04-21 18:49 47.30584 8.03211 24092 ft 412 kts 122°
2026-04-21 18:49 47.29225 8.06312 24089 ft 421 kts 122°
2026-04-21 18:49 47.28146 8.08776 24085 ft 427 kts 122°
2026-04-21 18:49 47.25989 8.13700 24084 ft 436 kts 122°
2026-04-21 18:50 47.24332 8.17477 24076 ft 441 kts 122°
2026-04-21 18:50 47.22662 8.21289 24077 ft 445 kts 122°
2026-04-21 18:50 47.20987 8.25131 24076 ft 448 kts 122°
2026-04-21 18:50 47.19307 8.29000 24078 ft 450 kts 122°
2026-04-21 18:51 47.17794 8.32480 24303 ft 444 kts 122°
2026-04-21 18:51 47.16140 8.36265 24773 ft 435 kts 122°
2026-04-21 18:51 47.14316 8.39744 25221 ft 427 kts 135°
2026-04-21 18:51 47.12168 8.42615 25697 ft 420 kts 143°
2026-04-21 18:52 47.09893 8.45279 26193 ft 416 kts 144°
2026-04-21 18:52 47.07684 8.48005 26701 ft 414 kts 141°
2026-04-21 18:52 47.05430 8.50570 27205 ft 406 kts 153°
2026-04-21 18:52 47.02944 8.52420 27726 ft 396 kts 165°
2026-04-21 18:53 47.00347 8.53574 28258 ft 384 kts 177°
2026-04-21 18:53 46.97737 8.54095 28803 ft 376 kts 185°
2026-04-21 18:53 46.95120 8.54479 29078 ft 384 kts 185°
2026-04-21 18:53 46.92410 8.54866 29077 ft 397 kts 185°
2026-04-21 18:54 46.89663 8.55255 29075 ft 406 kts 186°
2026-04-21 18:54 46.84019 8.56073 29072 ft 422 kts 185°
2026-04-21 18:55 46.79124 8.56783 29078 ft 429 kts 185°
2026-04-21 18:55 46.72062 8.57783 29065 ft 442 kts 184°
2026-04-21 18:56 46.65911 8.58674 29050 ft 445 kts 184°
2026-04-21 18:56 46.59732 8.59539 29060 ft 454 kts 184°
2026-04-21 18:57 46.53407 8.60447 29041 ft 458 kts 184°
2026-04-21 18:57 46.47054 8.61339 29025 ft 459 kts 184°
2026-04-21 18:58 46.40900 8.62215 29004 ft 460 kts 183°
2026-04-21 18:58 46.34667 8.64545 28995 ft 477 kts 162°
2026-04-21 18:59 46.28721 8.68618 28990 ft 481 kts 158°
2026-04-21 18:59 46.22718 8.72807 28979 ft 479 kts 162°
2026-04-21 19:00 46.16802 8.76902 28990 ft 462 kts 159°
2026-04-21 19:00 46.11209 8.80821 28986 ft 448 kts 161°
2026-04-21 19:01 46.05562 8.84689 29016 ft 457 kts 160°
2026-04-21 19:01 45.99795 8.88710 28999 ft 462 kts 161°
2026-04-21 19:02 45.93976 8.92700 28995 ft 465 kts 160°
2026-04-21 19:02 45.88128 8.96740 28995 ft 467 kts 160°
2026-04-21 19:03 45.82258 9.00770 28986 ft 469 kts 160°
2026-04-21 19:03 45.76399 9.04780 28988 ft 470 kts 160°
2026-04-21 19:04 45.70491 9.08823 28984 ft 472 kts 160°
2026-04-21 19:04 45.64564 9.12864 28985 ft 472 kts 160°
2026-04-21 19:05 45.58633 9.16900 28988 ft 472 kts 160°
2026-04-21 19:05 45.52701 9.20927 28993 ft 472 kts 160°
2026-04-21 19:06 45.46811 9.24915 28993 ft 472 kts 160°
2026-04-21 19:06 45.40882 9.28921 28988 ft 471 kts 160°
2026-04-21 19:07 45.34959 9.32912 29010 ft 472 kts 160°
2026-04-21 19:07 45.29026 9.36903 28993 ft 471 kts 160°
2026-04-21 19:08 45.23141 9.40848 28978 ft 470 kts 160°
2026-04-21 19:08 45.20169 9.42840 28528 ft 473 kts 160°
2026-04-21 19:08 45.17207 9.44826 28135 ft 468 kts 160°
2026-04-21 19:08 45.14284 9.46782 27727 ft 462 kts 160°
2026-04-21 19:09 45.11392 9.48717 27343 ft 457 kts 160°
2026-04-21 19:09 45.08531 9.50625 26943 ft 452 kts 160°
2026-04-21 19:09 45.05695 9.52511 26561 ft 450 kts 160°
2026-04-21 19:09 45.02888 9.54374 26191 ft 449 kts 160°
2026-04-21 19:10 45.00067 9.56245 25828 ft 448 kts 160°
2026-04-21 19:10 44.97248 9.58119 25397 ft 448 kts 160°
2026-04-21 19:10 44.94417 9.59997 24917 ft 450 kts 160°
2026-04-21 19:10 44.91576 9.61877 24446 ft 452 kts 160°
2026-04-21 19:11 44.88760 9.63742 23990 ft 442 kts 160°
2026-04-21 19:11 44.86011 9.65561 23532 ft 432 kts 161°
2026-04-21 19:11 44.83319 9.67337 23002 ft 423 kts 161°
2026-04-21 19:11 44.80680 9.69074 22474 ft 415 kts 161°
2026-04-21 19:12 44.78954 9.70212 22125 ft 411 kts 160°
2026-04-21 19:12 44.75532 9.72471 21440 ft 402 kts 160°
2026-04-21 19:12 44.73049 9.74102 20943 ft 396 kts 160°
2026-04-21 19:12 44.70567 9.75729 20450 ft 391 kts 160°
2026-04-21 19:13 44.68115 9.77342 19957 ft 387 kts 160°
2026-04-21 19:13 44.65693 9.78932 19474 ft 382 kts 161°
2026-04-21 19:13 44.63298 9.80499 19005 ft 377 kts 160°
2026-04-21 19:13 44.60931 9.82049 18543 ft 374 kts 160°
2026-04-21 19:14 44.58582 9.83589 18052 ft 371 kts 160°
2026-04-21 19:14 44.56253 9.85110 17517 ft 367 kts 160°
2026-04-21 19:14 44.53947 9.86612 16989 ft 364 kts 160°
2026-04-21 19:14 44.51664 9.88101 16475 ft 361 kts 160°
2026-04-21 19:15 44.49427 9.89558 15977 ft 358 kts 159°
2026-04-21 19:15 44.47172 9.91026 15482 ft 357 kts 159°
2026-04-21 19:15 44.44932 9.92485 15004 ft 352 kts 159°
2026-04-21 19:15 44.42772 9.93893 14979 ft 334 kts 159°
2026-04-21 19:16 44.40716 9.95228 14980 ft 319 kts 160°
2026-04-21 19:16 44.38770 9.96485 14974 ft 316 kts 159°
2026-04-21 19:16 44.37557 9.97272 14968 ft 315 kts 159°
2026-04-21 19:16 44.35848 9.98375 14967 ft 326 kts 160°
2026-04-21 19:17 44.31647 10.01091 14965 ft 344 kts 159°
2026-04-21 19:17 44.29401 10.02543 14770 ft 358 kts 160°
2026-04-21 19:17 44.27082 10.03560 14492 ft 351 kts 174°
2026-04-21 19:18 44.24683 10.04022 14121 ft 346 kts 179°
2026-04-21 19:18 44.22301 10.04463 13764 ft 345 kts 175°
2026-04-21 19:18 44.20593 10.04956 13445 ft 344 kts 171°
2026-04-21 19:18 44.18380 10.05740 12916 ft 325 kts 170°
2026-04-21 19:19 44.16237 10.06427 12398 ft 309 kts 173°
2026-04-21 19:19 44.14166 10.07004 11881 ft 298 kts 173°
2026-04-21 19:19 44.12164 10.07580 11381 ft 291 kts 172°
2026-04-21 19:19 44.10194 10.08179 10963 ft 286 kts 171°
2026-04-21 19:20 44.08326 10.08743 10951 ft 272 kts 172°
2026-04-21 19:20 44.06489 10.09290 10955 ft 272 kts 172°
2026-04-21 19:20 44.04610 10.09841 10954 ft 279 kts 172°
2026-04-21 19:20 44.02821 10.10374 10952 ft 283 kts 171°
2026-04-21 19:21 44.00890 10.10951 10955 ft 285 kts 171°
2026-04-21 19:21 43.99097 10.11487 10955 ft 286 kts 171°
2026-04-21 19:21 43.97269 10.12029 10953 ft 287 kts 171°
2026-04-21 19:21 43.95316 10.12611 10953 ft 287 kts 172°
2026-04-21 19:22 43.93362 10.13189 10970 ft 287 kts 171°
2026-04-21 19:22 43.91433 10.13762 10767 ft 291 kts 171°
2026-04-21 19:22 43.89439 10.14350 10251 ft 295 kts 171°
2026-04-21 19:22 43.87408 10.14952 9638 ft 301 kts 171°
2026-04-21 19:23 43.85396 10.15551 8988 ft 290 kts 170°
2026-04-21 19:23 43.83729 10.16047 8438 ft 281 kts 170°
2026-04-21 19:23 43.81949 10.16571 7840 ft 274 kts 170°
2026-04-21 19:23 43.80104 10.17115 7226 ft 268 kts 169°
2026-04-21 19:24 43.78296 10.17648 6620 ft 263 kts 169°
2026-04-21 19:24 43.76516 10.18174 5999 ft 260 kts 168°
2026-04-21 19:24 43.74785 10.18684 5374 ft 256 kts 168°
2026-04-21 19:24 43.73053 10.19196 4756 ft 253 kts 168°
2026-04-21 19:25 43.71338 10.19700 4121 ft 251 kts 167°
2026-04-21 19:25 43.69647 10.20198 3595 ft 245 kts 167°
2026-04-21 19:25 43.67991 10.20371 3218 ft 235 kts 184°
2026-04-21 19:25 43.66710 10.20015 2909 ft 231 kts 197°
2026-04-21 19:26 43.65287 10.19053 2535 ft 227 kts 213°
2026-04-21 19:26 43.64029 10.17740 2289 ft 231 kts 216°
2026-04-21 19:26 43.62701 10.16401 2042 ft 239 kts 215°
2026-04-21 19:26 43.61385 10.15057 2013 ft 238 kts 216°
2026-04-21 19:27 43.60062 10.13699 2015 ft 236 kts 216°
2026-04-21 19:27 43.58747 10.12350 2015 ft 235 kts 216°
2026-04-21 19:27 43.57435 10.11010 2015 ft 234 kts 216°
2026-04-21 19:27 43.56129 10.09675 2016 ft 233 kts 216°
2026-04-21 19:28 43.54826 10.08344 2014 ft 233 kts 216°
2026-04-21 19:28 43.53525 10.07015 2015 ft 232 kts 216°
2026-04-21 19:28 43.52225 10.05689 2017 ft 232 kts 216°
2026-04-21 19:28 43.50926 10.04369 2017 ft 232 kts 214°
2026-04-21 19:29 43.49479 10.03627 2006 ft 213 kts 182°
2026-04-21 19:29 43.48182 10.04128 2105 ft 182 kts 146°
2026-04-21 19:29 43.47261 10.05271 2020 ft 180 kts 126°
2026-04-21 19:29 43.46741 10.06800 2018 ft 176 kts 103°
2026-04-21 19:30 43.46697 10.08463 2014 ft 174 kts 81°
2026-04-21 19:30 43.47130 10.10007 2013 ft 174 kts 57°
2026-04-21 19:30 43.47837 10.11357 2013 ft 174 kts 55°
2026-04-21 19:30 43.48513 10.12746 2011 ft 176 kts 57°
2026-04-21 19:31 43.49198 10.14158 2009 ft 178 kts 56°
2026-04-21 19:31 43.49919 10.15583 2003 ft 184 kts 56°
2026-04-21 19:31 43.50647 10.17056 2006 ft 188 kts 57°
2026-04-21 19:31 43.51151 10.18094 2006 ft 190 kts 57°
2026-04-21 19:32 43.51866 10.19603 2005 ft 191 kts 57°
2026-04-21 19:32 43.52594 10.21146 2002 ft 193 kts 57°
2026-04-21 19:32 43.53323 10.22697 2003 ft 193 kts 57°
2026-04-21 19:32 43.54065 10.24243 2002 ft 194 kts 55°
2026-04-21 19:33 43.54647 10.25174 1999 ft 194 kts 43°
2026-04-21 19:33 43.56055 10.26721 1998 ft 194 kts 39°
2026-04-21 19:33 43.57130 10.27848 1998 ft 194 kts 37°
2026-04-21 19:33 43.58222 10.28946 1997 ft 195 kts 38°
2026-04-21 19:34 43.59284 10.30066 1976 ft 198 kts 38°
2026-04-21 19:34 43.60421 10.31212 1731 ft 205 kts 37°
2026-04-21 19:34 43.61539 10.32384 1455 ft 192 kts 38°
2026-04-21 19:34 43.62536 10.33394 1218 ft 167 kts 37°
2026-04-21 19:35 43.63436 10.34334 998 ft 158 kts 38°
2026-04-21 19:35 43.65142 10.36098 594 ft 151 kts 39°
2026-04-21 19:35 43.65970 10.36974 376 ft 150 kts 38°
2026-04-21 19:36 43.66816 10.37834 195 ft 153 kts 36°
2026-04-21 19:36 43.67635 10.38653 103 ft 134 kts 36°
2026-04-21 19:36 43.68306 10.39340 34 ft 108 kts 36°
2026-04-21 19:36 43.68753 10.39798 11 ft 91 kts 36°
2026-04-21 19:37 43.69126 10.40191 13 ft 36 kts 36°
2026-04-21 19:37 43.69244 10.40301 13 ft 16 kts 14°
2026-04-21 19:37 43.69316 10.40226 11 ft 13 kts 309°
2026-04-21 19:37 43.69351 10.40163 15 ft 3 kts 306°
2026-04-21 19:38 43.69368 10.40132 16 ft 10 kts 308°
2026-04-21 19:38 43.69442 10.40095 12 ft 15 kts 353°
2026-04-21 19:38 43.69521 10.40080 8 ft 14 kts 352°
2026-04-21 19:38 43.69577 10.40067 7 ft 7 kts 353°
2026-04-21 19:39 43.69638 10.40056 7 ft 11 kts 352°
2026-04-21 19:39 43.69685 10.39998 7 ft 7 kts 280°
2026-04-21 19:39 43.69686 10.39981 7 ft 0 kts 276°
2026-04-21 19:39 43.69691 10.39943 7 ft 9 kts 280°
2026-04-21 19:40 43.69698 10.39833 7 ft 9 kts 248°
2026-04-21 19:40 43.69651 10.39800 7 ft 9 kts 189°
2026-04-21 19:40 43.69603 10.39797 7 ft 5 kts 134°
2026-04-21 19:40 43.69596 10.39835 7 ft 0 kts 99°
2026-04-21 19:41 43.69593 10.39862 7 ft 2 kts 98°
2026-04-21 19:41 43.69592 10.39881 7 ft 0 kts 78°
2026-04-21 19:41 43.69595 10.39886 7 ft 0 kts 36°